Regional Weather Roundup
Issued by NWS Northern Indiana

Home | Current Version | Previous Version | Graphics & Text | Print | Product List | Glossary On
Versions: 1 2 3 4 5 6 7 8 9 10 11 12 13 14 15 16 17 18 19 20 21 22 23 24 25 26 27 28 29 30 31 32 33 34 35 36 37 38 39 40 41 42 43 44 45 46 47 48 49 50
000
ASUS43 KIWX 021700
RWRIWX

KIWX WEATHER ROUNDUP
NATIONAL WEATHER SERVICE NORTHERN INDIANA
100 PM EDT WED SEP 02 2015

NOTE: "FAIR" INDICATES FEW OR NO CLOUDS BELOW 12,000 FEET WITH NO
SIGNIFICANT WEATHER AND/OR OBSTRUCTIONS TO VISIBILITY.

* THESE STATIONS ARE NOT UNDER NWS QUALITY CONTROL. THEY ALSO MAY NOT
  REPORT WEATHER SUCH AS PRECIPITATION OR FOG.

INZ001>027-021800-
NORTHERN INDIANA

CITY           SKY/WX    TMP DP  RH WIND       PRES   REMARKS
GARY*          MOSUNNY   88  66  48 SW3       30.05F
KNOX*          SUNNY     86  68  54 CALM      30.06F
SOUTH BEND     SUNNY     85  72  65 W8        30.06F
ELKHART*       SUNNY     84  72  65 W7        30.06F
GOSHEN         SUNNY     86  72  62 MISG      30.06F
MONTICELLO*    MOSUNNY   84  73  68 W6        30.07F
ANGOLA*        SUNNY     90  73  58 W7        30.07F HX  98
FORT WAYNE     MOSUNNY   85  72  65 W7        30.09F
PERU/GRISSOM   MOSUNNY   87  71  58 W6        30.08F

$$
INZ028>050-021800-
CENTRAL INDIANA

CITY           SKY/WX    TMP DP  RH WIND       PRES   REMARKS
LAFAYETTE      MOSUNNY   87  69  54 VRB3      30.08F
KOKOMO*        MOSUNNY   86  70  58 NW5       30.09F
MUNCIE*        SUNNY     83  71  67 W8        30.11F
INDIANAPOLIS   PTSUNNY   86  68  54 VRB5      30.11F

$$
MIZ043>046-050>051-056>058-064>065-071>073-077>080-021800-
SOUTHWEST LOWER MICHIGAN

CITY           SKY/WX    TMP DP  RH WIND       PRES   REMARKS
BATTLE CREEK   SUNNY     87  71  58 W13       30.05F
BENTON HARBOR  SUNNY     82  70  66 W9        30.04F
COLDWATER*     SUNNY     87  69  55 W9        30.06F
HILLSDALE*     SUNNY     87  71  59 W8        30.07F
HOLLAND        SUNNY     83  71  67 SW12      30.03F
GRAND RAPIDS   MOSUNNY   85  73  67 W9        30.02F
KALAMAZOO      SUNNY     87  70  56 NW12      30.04F
STURGIS*       SUNNY     84  73  70 SW5       30.05F
THREE RIVERS*  FAIR      88  70  56 W6        30.05F

$$
OHZ001>008-015>018-024>025-021800-
NORTHWEST OHIO

CITY           SKY/WX    TMP DP  RH WIND       PRES   REMARKS
DEFIANCE       SUNNY     86  72  62 SW7       30.07F
FINDLAY        PTSUNNY   83  70  64 SW8       30.07F
TOLEDO EXPRESS MOSUNNY   82  70  66 S10       30.06F
TOLEDO METCALF PTSUNNY   78  71  79 SW7       30.06F
LIMA           MOSUNNY   82  70  66 VRB3      30.10F

$$
AND FOR LAKE MICHIGAN COASTAL AND OPEN LAKE BUOY OBSERVATIONS

STATION/POSITION TEMP    WIND        PRES    VSBY  WAVE
                 AIR SEA DIR/SP/G                  HT/PER
                 (F)     (DEG/KT/KT) (MB)    (MI)  (FT/S)
CALUMET HARBOR    83     190/  2/  6   N/A
MICHIGAN CITY     78     220/  6/  7   N/A
BURNS HARBOR      81     240/  4/  5 1018.3F
SAINT JOSEPH      76     190/ 11/ 16 1017.9F
SOUTH LAKE BUOY   72 70  200/ 10/ 12 1016.6          1
4 MI NW BRIDGMAN  74 72  260/  8/ 10   N/A           1/ 3
MICHIGAN CITY     76 72  250/  6/  6   N/A           1

$$
&&



USA.gov is the U.S. government's official web portal to all federal, state and local government web resources and services.